Location: Nowy Sacz
(49.6330°N, 20.7170°E)
Time: 08:45:36
(UTC+01:00)

BlueWalker 3 - Visible Passes

Search period start: 23 February 2024 00:00
Search period end: 04 March 2024 00:00
Orbit: 486 x 500 km, 53.2° (Epoch: 22 February)

Date Brightness Start Highest point End Pass type
(mag) Time Alt. Az. Time Alt. Az. Time Alt. Az.
23 Feb 2.4 18:32:23 10° W 18:36:06 53° N 18:38:06 24° ENE visible
23 Feb 4.3 20:11:04 10° WNW 20:12:34 22° WNW 20:12:34 22° WNW visible
24 Feb 2.4 18:08:36 10° W 18:12:18 53° N 18:15:18 15° ENE visible
24 Feb 3.3 19:47:16 10° WNW 19:49:47 36° NW 19:49:47 36° NW visible
25 Feb 2.4 17:44:46 10° W 17:48:30 54° N 17:52:13 10° ENE visible
25 Feb 2.4 19:23:27 10° WNW 19:26:58 51° N 19:26:58 51° N visible
26 Feb 2.3 18:59:37 10° WNW 19:03:20 52° N 19:04:07 42° NE visible
26 Feb 5.0 20:37:59 10° WNW 20:38:36 14° WNW 20:38:36 14° WNW visible
27 Feb 2.3 18:35:46 10° WNW 18:39:28 51° N 18:41:17 26° ENE visible
27 Feb 4.2 20:14:07 10° WNW 20:15:45 24° WNW 20:15:45 24° WNW visible
28 Feb 2.3 18:11:53 10° WNW 18:15:35 51° N 18:18:26 16° E visible
28 Feb 3.0 19:50:15 10° WNW 19:52:55 42° W 19:52:55 42° W visible
29 Feb 2.3 17:47:58 10° WNW 17:51:41 50° N 17:55:22 10° E visible
29 Feb 1.9 19:26:20 10° WNW 19:30:06 69° SSW 19:30:06 69° SSW visible
01 Mar 1.9 19:02:25 10° WNW 19:06:11 71° SSW 19:07:18 42° SE visible
01 Mar 5.0 20:41:34 10° W 20:41:47 11° W 20:41:47 11° W visible
02 Mar 2.0 18:38:28 10° WNW 18:42:14 73° SSW 18:44:34 22° SE visible
02 Mar 4.5 20:17:34 10° W 20:19:03 15° WSW 20:19:03 15° WSW visible
03 Mar 2.0 18:14:30 10° WNW 18:18:17 74° SSW 18:21:53 11° ESE visible
03 Mar 4.2 19:53:33 10° W 19:56:03 17° SW 19:56:22 17° SW visible
